Weather History for 91925 - October, 2012

Change the Weather History Date:

Monday, October 8, 2012

  Actual Average Record
Temperature  
Mean Temperature 78 °F -  
Max Temperature 84 °F 86 °F - ()
Min Temperature 73 °F 72 °F - ()
Cooling Degree Days 14    
Growing Degree Days 28 (Base 50)    
Moisture  
Dew Point 69 °F    
Average Humidity 67    
Maximum Humidity 81    
Minimum Humidity 46    
Precipitation  
Precipitation 0.00 in 0.11 in - ()
Sea Level Pressure  
Sea Level Pressure 29.92 in    
Wind  
Wind Speed 6 mph ()    
Max Wind Speed 27 mph    
Max Gust Speed -    
Visibility 18.0 miles    
Events      
T = Trace of Precipitation, MM = Missing Value Source: Averaged Metar Reports

Daily Weather History Graph

Daily Weather History Graph

Search for Another Location

Airport or City:

Trip Planner

Search our weather history database for the weather conditions in past years. The results will help you decide how hot, cold, wet, or windy it might be!

Date:

Astronomy

Oct. 08, 2012 Rise Set
Actual Time 5:25 AM MART 5:41 PM MART
Civil Twilight 5:04 AM MART 6:02 PM MART
Nautical Twilight 4:40 AM MART 6:26 PM MART
Astronomical Twilight 4:15 AM MART 6:51 PM MART
Moon 11:59 PM MART (10/7) 11:55 AM MART (10/8)
Length of Visible Light 12h 57m
Length of Day
12h 15m
Last Quarter, 44% of the Moon is Illuminated
Oct 8
Last Quarter
Oct 15
New
Oct 21
First Quarter
Oct 29
Full
Nov 6
Last Quarter

Hourly Weather History & Observations

Time (MART) Temp. Dew Point Humidity Pressure Visibility Wind Dir Wind Speed Gust Speed Precip Events Conditions
12:30 AM 73 °F 67 °F 78% 29.90 in - North 1.2 mph - -  
1:30 AM 73 °F 68 °F 79% 29.88 in - NE 3.5 mph - -  
2:30 AM 73 °F 68 °F 80% 29.88 in - NE 2.3 mph - -  
3:30 AM 74 °F 68 °F 77% 29.89 in - North 2.3 mph - -  
4:30 AM 73 °F 68 °F 81% 29.90 in - NE 3.5 mph - -  
5:30 AM 73 °F 68 °F 79% 29.92 in 16 mi NNE 6.7 mph - -   Scattered Clouds
6:30 AM 76 °F 69 °F 74% 29.94 in - North 2.3 mph - -  
7:30 AM 82 °F 70 °F 59% 29.96 in 19 mi East 16.1 mph - -   Scattered Clouds
8:30 AM 83 °F 70 °F 57% 29.97 in 19 mi East 24.6 mph - -   Scattered Clouds
9:30 AM 84 °F 67 °F 46% 29.96 in - East 13.8 mph - -  
10:30 AM 84 °F 70 °F 54% 29.96 in 22 mi East 13.8 mph - -   Scattered Clouds
11:30 AM 84 °F 69 °F 52% 29.94 in 22 mi East 11.5 mph - -   Scattered Clouds
12:30 PM 84 °F 69 °F 52% 29.90 in - East 15.0 mph - -  
2:30 PM 83 °F 69 °F 53% 29.88 in 22 mi East 26.8 mph - -   Scattered Clouds
3:30 PM 82 °F 69 °F 56% 29.88 in 22 mi East 10.4 mph - -   Scattered Clouds
4:30 PM 80 °F 69 °F 61% 29.88 in - East 10.4 mph - -  
5:30 PM 80 °F 69 °F 62% 29.90 in - East 10.4 mph - -  
6:30 PM 77 °F 69 °F 70% 29.93 in - WNW 4.6 mph - -  
7:30 PM 76 °F 69 °F 73% 29.95 in - North 2.3 mph - -  
8:30 PM 75 °F 69 °F 77% 29.96 in - NE 6.7 mph - -  
9:30 PM 75 °F - %  in - WNW 2.3 mph - -  
10:30 PM 75 °F 69 °F 77% 29.97 in - Calm Calm - -  
11:30 PM 75 °F 69 °F 78% 29.95 in - North 6.7 mph - -